EW7404 Weather Reports


time (UTC)temp
C
wind
direction
speed
KPH
gust
KPH
rain 1hr
cm
rain 24hr
cm
rain mn
cm
humidity
%
barometer
mb
20260505090556 4 23 14.5 27.4 0.00 14.68 7.04 57 952.6
20260505085535 3 35 12.9 29.0 0.00 14.68 7.04 62 952.5
20260505084515 3 38 8.0 19.3 6.50 14.68 7.04 59 952.6
20260505084035 2 11 25.7 40.2 6.50 14.68 7.04 64 952.3
20260505083016 2 2 19.3 30.6 6.50 14.68 7.04 65 952.3
20260505082015 2 360 20.9 38.6 6.50 14.68 7.04 65 952.3
20260505081016 2 16 17.7 32.2 6.50 14.68 7.04 64 952.2
20260505080015 2 3 17.7 29.0 6.50 14.68 7.04 71 952.2
20260505075015 2 13 20.9 27.4 0.00 8.18 0.53 74 952.2
20260505074016 2 12 14.5 24.1 0.00 8.18 0.53 73 952.2
20260505073035 2 11 20.9 32.2 0.00 8.18 0.53 69 952.1
20260505072015 2 16 11.3 24.1 0.00 8.18 0.53 74 952.1
20260505071015 2 13 17.7 29.0 0.00 8.18 0.53 75 952.1
20260505070016 1 360 17.7 27.4 0.00 8.18 0.53 76 952.1
20260505065115 1 11 20.9 30.6 0.00 8.18 0.53 76 951.9
20260505064016 1 1 17.7 25.7 0.00 8.18 0.53 77 951.9
20260505063015 1 9 20.9 30.6 0.00 8.18 0.53 76 951.8
20260505062015 1 11 20.9 29.0 0.00 8.18 0.53 76 951.7
20260505061015 1 3 22.5 30.6 0.00 8.18 0.53 76 951.7
20260505060015 1 357 20.9 27.4 0.00 8.18 0.53 77 952.2
20260505055015 1 346 20.9 29.0 0.00 8.18 0.53 77 952.0
20260505054015 1 344 25.7 33.8 0.00 8.18 0.53 78 952.0
20260505053015 1 348 22.5 33.8 0.00 8.18 0.53 77 951.7
20260505052015 1 347 24.1 33.8 0.00 8.18 0.53 77 951.6
20260505051015 1 347 24.1 35.4 0.00 8.18 0.53 77 951.6
20260505041015 1 332 25.7 32.2 0.00 8.79 0.53 77 951.5
20260505040015 1 331 24.1 33.8 0.00 8.79 0.53 77 951.5
20260505035015 0 332 24.1 32.2 0.00 8.79 0.53 76 951.5
20260505034014 1 330 24.1 32.2 0.00 8.79 0.53 76 951.5
20260505033015 1 335 24.1 33.8 0.00 8.79 0.53 75 951.5
20260505032015 1 329 24.1 30.6 0.53 8.79 0.53 75 951.4
20260505031014 1 334 25.7 33.8 0.53 8.79 0.53 75 951.4
20260505030016 1 333 25.7 33.8 0.53 8.79 0.53 74 951.4
20260505025015 1 336 24.1 37.0 0.53 8.79 0.53 75 951.5
20260505024015 1 326 22.5 32.2 0.53 8.79 0.53 75 951.5
20260505023016 1 318 22.5 32.2 0.53 8.79 0.53 75 951.4
20260505022015 1 325 20.9 27.4 0.00 8.23 0.00 75 951.5
20260505021016 1 333 22.5 30.6 0.00 8.23 0.00 75 951.5
20260505020035 1 327 20.9 27.4 0.00 8.23 0.00 75 951.5
20260505015015 0 323 20.9 25.7 0.00 8.23 0.00 76 951.4
20260505014015 0 313 19.3 25.7 0.00 8.23 0.00 78 951.4
20260505013115 0 316 20.9 27.4 0.00 8.23 0.00 79 951.5
20260505012016 0 313 22.5 30.6 0.00 8.23 0.00 78 951.5
20260505011015 0 307 20.9 29.0 0.00 8.23 0.00 77 951.4
20260505010016 0 302 19.3 27.4 0.00 8.23 0.00 77 951.4
20260505005015 1 312 20.9 30.6 0.00 8.23 0.00 75 951.5
20260505004015 0 301 22.5 29.0 0.00 8.23 0.00 77 951.4
20260505003035 0 301 24.1 30.6 0.00 8.23 0.00 78 951.4
20260505002015 0 300 20.9 27.4 0.00 8.23 0.00 77 951.5
20260505001015 0 300 22.5 29.0 0.00 8.23 0.00 78 951.6
20260505000015 0 302 22.5 29.0 0.00 8.23 0.00 75 951.6
20260504235016 0 301 22.5 25.7 0.00 8.23 0.00 74 951.6
20260504234015 1 305 20.9 29.0 0.00 8.23 0.00 73 951.7
20260504233135 1 315 17.7 22.5 0.00 8.23 0.00 72 951.8
20260504232015 1 320 19.3 24.1 0.00 8.23 0.00 72 951.8
20260504231015 1 321 19.3 25.7 0.00 8.23 0.00 72 951.9
20260504230015 1 321 20.9 27.4 0.00 8.23 0.00 72 952.0
20260504225015 1 316 19.3 24.1 0.00 8.23 0.00 74 952.0
20260504224015 1 311 19.3 24.1 0.00 8.23 0.00 75 952.1
20260504223015 1 320 20.9 27.4 0.00 8.23 0.00 73 952.2
20260504222136 1 325 19.3 25.7 0.00 8.86 0.00 74 952.2
20260504221015 1 332 24.1 29.0 0.00 8.86 0.00 74 952.2
20260504220015 1 341 24.1 32.2 0.00 8.86 0.00 74 952.1
20260504215015 1 336 20.9 30.6 0.00 8.86 0.00 76 952.2
20260504214015 1 330 20.9 29.0 0.61 8.86 0.00 76 952.2
20260504213016 1 326 17.7 24.1 0.61 8.86 0.00 77 952.1
20260504212015 1 336 20.9 27.4 0.61 8.86 0.00 77 952.1
20260504211015 1 332 19.3 25.7 0.61 8.86 0.00 77 952.1
20260504210015 1 326 16.1 22.5 0.61 8.86 0.00 77 952.2
20260504205015 1 324 17.7 24.1 0.61 8.86 8.86 77 952.2
20260504204016 1 325 17.7 24.1 0.00 8.28 8.28 77 952.2
20260504203035 1 319 20.9 24.1 0.00 8.28 8.28 77 952.2
20260504202015 1 325 17.7 20.9 0.00 8.28 8.28 78 952.2
20260504201035 1 321 16.1 20.9 0.00 8.28 8.28 77 952.1
20260504200015 1 325 14.5 19.3 0.00 8.28 8.28 78 952.1
20260504195015 1 339 12.9 16.1 0.00 8.28 8.28 77 952.0
20260504194016 0 346 12.9 16.1 0.00 8.28 8.28 77 952.1
20260504193015 0 339 9.7 12.9 6.50 8.28 8.28 79 952.0
20260504192015 0 342 11.3 14.5 6.50 8.86 8.28 81 951.9
20260504191016 0 343 11.3 12.9 6.50 8.86 8.28 82 951.9
20260504190015 0 353 9.7 12.9 6.50 8.86 8.28 82 951.8
20260504185015 0 347 11.3 14.5 6.50 8.86 8.28 82 951.7
20260504184015 0 353 11.3 14.5 6.50 8.86 8.28 83 951.6
20260504183035 0 353 11.3 16.1 0.00 2.36 1.78 83 951.6
20260504182015 0 345 12.9 17.7 0.00 2.36 1.78 83 951.5
20260504181015 0 354 14.5 17.7 0.00 2.36 1.78 83 951.4
20260504180015 0 4 14.5 17.7 0.00 2.36 1.78 82 951.2
20260504175015 0 5 16.1 20.9 0.00 2.36 1.78 80 951.3
20260504174015 0 11 14.5 19.3 0.00 2.36 1.78 79 951.2
20260504173015 0 14 16.1 20.9 0.00 2.36 1.78 79 951.1
20260504172016 0 13 16.1 22.5 0.00 2.36 1.78 77 951.1
20260504171015 0 23 12.9 20.9 0.00 2.36 1.78 76 951.1
20260504151015 0 29 14.5 25.7 0.00 2.39 1.78 77 951.1
20260504141015 0 62 14.5 27.4 0.03 2.39 1.75 76 950.7
20260504110516 0 33 11.3 27.4 0.00 3.00 1.73 81 950.6